St. Joseph, KS

7:39 PM CDT on March 29, 2017 (GMT -0500)
Rosecrans Memorial

Weather History for KSTJ - February, 2012

Change the Weather History Date:

Monday, February 13, 2012

  Actual Average Record
Temperature  
Mean Temperature 31 °F 31 °F  
Max Temperature 34 °F 42 °F 70 °F (1921)
Min Temperature 27 °F 21 °F -1 °F (2004)
Degree Days  
Heating Degree Days 34 34  
Month to date heating degree days 412 455  
Since 1 July heating degree days 3308 3838  
Cooling Degree Days 0 0  
Month to date cooling degree days 0 0  
Year to date cooling degree days 0 0  
Moisture  
Dew Point 28 °F    
Average Humidity 68    
Maximum Humidity 100    
Minimum Humidity 35    
Precipitation  
Precipitation 0.09 in 0.04 in 0.59 in (1906)
Month to date precipitation 1.27 0.40  
Year to date precipitation 1.45 0.96  
Sea Level Pressure  
Sea Level Pressure 29.91 in    
Wind  
Wind Speed 9 mph (South)    
Max Wind Speed 23 mph    
Max Gust Speed 30 mph    
Visibility 4 miles    
Events Fog , Snow    
T = Trace of Precipitation, MM = Missing Value Source: NWS Daily Summary

Daily Weather History Graph

Daily Weather History Graph

Search for Another Location

Airport or City:

Trip Planner

Search our weather history database for the weather conditions in past years. The results will help you decide how hot, cold, wet, or windy it might be!

Date:

Astronomy

Feb. 13, 2012 Rise Set
Actual Time 7:15 AM CST 5:53 PM CST
Civil Twilight 6:47 AM CST 6:20 PM CST
Nautical Twilight 6:15 AM CST 6:52 PM CST
Astronomical Twilight 5:44 AM CST 7:23 PM CST
Moon No Moon Rise 10:15 AM CST (2/13)
Length of Visible Light 11h 33m
Length of Day
10h 37m
Waning Gibbous, 61% of the Moon is Illuminated
Feb 13
Waning Gibbous
Feb 14
Last Quarter
Feb 21
New
Feb 29
First Quarter
Mar 8
Full

Hourly Weather History & Observations

Time (CST) Temp. Windchill Dew Point Humidity Pressure Visibility Wind Dir Wind Speed Gust Speed Precip Events Conditions
12:53 AM 34.0 °F 25.0 °F 8.1 °F 34% 30.12 in 10.0 mi South 12.7 mph - N/A   Overcast
1:53 AM 32.0 °F 19.5 °F 17.1 °F 54% 30.12 in 7.0 mi SSW 21.9 mph 29.9 mph 0.00 in Snow Light Snow
2:02 AM 28.4 °F 17.5 °F 21.2 °F 74% 30.10 in 2.5 mi SSW 13.8 mph 27.6 mph 0.00 in Snow Light Snow
2:12 AM 28.4 °F 16.6 °F 24.8 °F 86% 30.10 in 1.2 mi SSW 16.1 mph - 0.00 in Snow Light Snow
2:53 AM 27.0 °F 17.3 °F 25.0 °F 92% 30.11 in 1.8 mi SSW 10.4 mph - 0.00 in Snow Light Snow
3:07 AM 26.6 °F 16.8 °F 26.6 °F 100% 30.08 in 1.0 mi SSW 10.4 mph - 0.01 in Snow Light Snow
3:38 AM 26.6 °F 16.8 °F 26.6 °F 100% 30.06 in 1.5 mi South 10.4 mph - 0.02 in Snow Light Snow
3:53 AM 28.0 °F 18.1 °F 26.1 °F 92% 30.06 in 1.5 mi SSE 11.5 mph - 0.02 in Snow Light Snow
4:38 AM 28.4 °F 19.1 °F 26.6 °F 93% 30.02 in 2.0 mi SSE 10.4 mph - 0.01 in Snow Light Snow
4:53 AM 28.0 °F 18.1 °F 26.1 °F 92% 30.04 in 2.5 mi SSE 11.5 mph - 0.02 in Snow Light Snow
5:06 AM 28.4 °F 18.0 °F 26.6 °F 93% 30.01 in 1.2 mi SSE 12.7 mph - 0.00 in Snow Light Snow
5:53 AM 28.0 °F 18.1 °F 26.1 °F 92% 30.01 in 1.8 mi SSE 11.5 mph - 0.01 in Snow Light Snow
6:01 AM 28.4 °F 18.5 °F 26.6 °F 93% 29.98 in 2.0 mi SSE 11.5 mph - 0.00 in Snow Light Snow
6:16 AM 28.4 °F 18.0 °F 26.6 °F 93% 29.97 in 1.8 mi SSE 12.7 mph - 0.00 in Snow Light Snow
6:32 AM 28.4 °F 18.0 °F 26.6 °F 93% 29.96 in 2.0 mi SSE 12.7 mph - 0.00 in Snow Light Snow
6:34 AM 28.4 °F 18.0 °F 26.6 °F 93% 29.96 in 1.8 mi SSE 12.7 mph - 0.00 in Snow Light Snow
6:53 AM 28.9 °F 19.2 °F 27.0 °F 92% 29.99 in 1.5 mi South 11.5 mph - 0.00 in Snow Light Snow
7:24 AM 28.4 °F 18.5 °F 26.6 °F 93% 29.96 in 1.5 mi South 11.5 mph - 0.01 in Snow Light Snow
7:33 AM 28.4 °F 18.5 °F 26.6 °F 93% 29.95 in 0.5 mi South 11.5 mph - 0.02 in Fog , Snow Snow
7:53 AM 28.9 °F 18.2 °F 28.0 °F 96% 29.97 in 0.8 mi South 13.8 mph - 0.02 in Snow Light Snow
8:08 AM 28.4 °F 18.0 °F 28.4 °F 100% 29.94 in 1.0 mi South 12.7 mph - 0.00 in Snow Light Snow
8:27 AM 30.2 °F 20.2 °F 28.4 °F 93% 29.94 in 3.0 mi South 12.7 mph - 0.01 in Snow Light Snow
8:53 AM 30.0 °F 20.5 °F 28.0 °F 92% 29.95 in 8.0 mi South 11.5 mph - 0.01 in   Overcast
9:17 AM 30.2 °F 19.3 °F 28.4 °F 93% 29.92 in 1.8 mi South 15.0 mph - 0.00 in Snow Light Snow
9:28 AM 30.2 °F 20.8 °F 28.4 °F 93% 29.92 in 0.8 mi South 11.5 mph - 0.00 in Snow Light Snow
9:40 AM 30.2 °F 20.2 °F 28.4 °F 93% 29.92 in 1.2 mi SSE 12.7 mph - 0.00 in Snow Light Snow
9:46 AM 30.2 °F 21.3 °F 28.4 °F 93% 29.92 in 3.0 mi SSE 10.4 mph - 0.00 in Snow Light Snow
9:53 AM 30.9 °F 22.8 °F 28.0 °F 89% 29.94 in 6.0 mi South 9.2 mph - 0.00 in Snow Light Snow
10:53 AM 30.9 °F 20.2 °F 28.0 °F 89% 29.91 in 10.0 mi South 15.0 mph - 0.00 in   Overcast
11:53 AM 32.0 °F 22.5 °F 28.9 °F 88% 29.88 in 10.0 mi South 12.7 mph - N/A   Overcast
12:53 PM 32.0 °F 22.1 °F 28.9 °F 88% 29.84 in 10.0 mi South 13.8 mph - N/A   Overcast
1:53 PM 32.0 °F 22.5 °F 28.9 °F 88% 29.82 in 5.0 mi South 12.7 mph - N/A   Overcast
2:42 PM 32.0 °F 23.0 °F 30.2 °F 93% 29.79 in 6.0 mi South 11.5 mph - N/A   Overcast
2:53 PM 32.0 °F 23.6 °F 30.0 °F 92% 29.81 in 6.0 mi South 10.4 mph - N/A   Overcast
3:11 PM 32.0 °F 24.2 °F 30.2 °F 93% 29.78 in 7.0 mi South 9.2 mph - N/A   Overcast
3:42 PM 32.0 °F 25.6 °F 30.2 °F 93% 29.77 in 10.0 mi South 6.9 mph - N/A   Overcast
3:53 PM 32.0 °F 24.8 °F 30.0 °F 92% 29.79 in 8.0 mi South 8.1 mph - N/A   Overcast
4:36 PM 32.0 °F 25.6 °F 30.2 °F 93% 29.76 in 2.5 mi South 6.9 mph - N/A   Overcast
4:53 PM 32.0 °F 25.6 °F 30.9 °F 96% 29.78 in 3.0 mi South 6.9 mph - N/A   Overcast
5:53 PM 32.0 °F 26.4 °F 30.9 °F 96% 29.79 in 4.0 mi South 5.8 mph - N/A   Overcast
6:53 PM 32.0 °F 26.4 °F 30.9 °F 96% 29.80 in 4.0 mi South 5.8 mph - N/A   Overcast
7:50 PM 32.0 °F - 32.0 °F 100% 29.78 in 2.5 mi Calm Calm - 0.01 in Snow Light Snow
7:53 PM 32.0 °F - 32.0 °F 100% 29.81 in 3.0 mi Calm Calm - 0.01 in Snow Light Snow
8:53 PM 32.0 °F 28.7 °F 32.0 °F 100% 29.81 in 7.0 mi South 3.5 mph - 0.00 in   Overcast
9:53 PM 33.1 °F 28.7 °F 32.0 °F 96% 29.81 in 7.0 mi SSW 4.6 mph - N/A   Overcast
10:14 PM 33.8 °F 29.6 °F 32.0 °F 93% 29.79 in 7.0 mi SSW 4.6 mph - N/A   Overcast
10:27 PM 33.8 °F 29.6 °F 32.0 °F 93% 29.79 in 7.0 mi SSW 4.6 mph - N/A   Overcast
10:38 PM 33.8 °F 30.8 °F 32.0 °F 93% 29.79 in 7.0 mi SSW 3.5 mph - N/A   Overcast
10:50 PM 33.8 °F - 32.0 °F 93% 29.79 in 7.0 mi Calm Calm - N/A   Overcast
10:53 PM 33.1 °F - 32.0 °F 96% 29.82 in 7.0 mi Calm Calm - N/A   Overcast
11:53 PM 32.0 °F - 30.9 °F 96% 29.81 in 6.0 mi Calm Calm - N/A   Overcast